TimeEST,TemperatureF,Dew PointF,Humidity,Sea Level PressureIn,VisibilityMPH,Wind Direction,Wind SpeedMPH,Gust SpeedMPH,PrecipitationIn,Events,Conditions,WindDirDegrees,DateUTC
12:15 AM,26.6,21.2,80,30.12,3.0,WNW,6.9,-,N/A,Snow,Light Snow,300,2013-02-09 05:15:00
12:35 AM,26.6,19.4,74,30.12,4.0,NW,6.9,17.3,N/A,Snow,Light Snow,320,2013-02-09 05:35:00
12:55 AM,26.6,19.4,74,30.12,5.0,NW,9.2,-,N/A,Snow,Light Snow,320,2013-02-09 05:55:00
1:15 AM,26.6,19.4,74,30.13,5.0,NW,6.9,-,N/A,,Haze,320,2013-02-09 06:15:00
1:35 AM,26.6,19.4,74,30.13,5.0,NNW,10.4,18.4,N/A,,Haze,330,2013-02-09 06:35:00
1:55 AM,24.8,15.8,69,30.14,10.0,NNW,9.2,18.4,N/A,,Overcast,340,2013-02-09 06:55:00
2:15 AM,24.8,14.0,64,30.15,10.0,NNW,8.1,-,N/A,,Mostly Cloudy,330,2013-02-09 07:15:00
2:35 AM,23.0,14.0,68,30.15,10.0,NW,12.7,18.4,N/A,,Mostly Cloudy,320,2013-02-09 07:35:00
2:55 AM,23.0,14.0,68,30.15,10.0,West,4.6,-,N/A,,Mostly Cloudy,280,2013-02-09 07:55:00
3:15 AM,23.0,12.2,63,30.15,10.0,NNW,5.8,-,N/A,,Mostly Cloudy,330,2013-02-09 08:15:00
3:35 AM,23.0,14.0,68,30.15,10.0,NNW,5.8,-,N/A,,Mostly Cloudy,330,2013-02-09 08:35:00
3:55 AM,23.0,12.2,63,30.15,10.0,NNW,5.8,-,N/A,,Scattered Clouds,340,2013-02-09 08:55:00
4:15 AM,23.0,12.2,63,30.15,10.0,North,9.2,16.1,N/A,,Scattered Clouds,350,2013-02-09 09:15:00
4:35 AM,21.2,12.2,68,30.16,10.0,NNW,13.8,-,N/A,,Clear,330,2013-02-09 09:35:00
4:55 AM,21.2,12.2,68,30.17,10.0,NNW,6.9,-,N/A,,Clear,330,2013-02-09 09:55:00
5:15 AM,21.2,12.2,68,30.17,10.0,NNW,8.1,-,N/A,,Clear,330,2013-02-09 10:15:00
5:35 AM,21.2,12.2,68,30.18,10.0,NW,4.6,-,N/A,,Clear,310,2013-02-09 10:35:00
5:55 AM,21.2,12.2,68,30.19,10.0,Calm,Calm,-,N/A,,Clear,0,2013-02-09 10:55:00
6:15 AM,21.2,10.4,63,30.19,10.0,West,3.5,-,N/A,,Clear,270,2013-02-09 11:15:00
6:35 AM,19.4,10.4,68,30.20,10.0,WSW,5.8,-,N/A,,Clear,250,2013-02-09 11:35:00
6:55 AM,19.4,10.4,68,30.21,10.0,West,3.5,-,N/A,,Clear,260,2013-02-09 11:55:00
7:15 AM,19.4,10.4,68,30.21,10.0,SW,3.5,-,N/A,,Clear,220,2013-02-09 12:15:00
7:35 AM,19.4,10.4,68,30.22,10.0,Calm,Calm,-,N/A,,Clear,0,2013-02-09 12:35:00
7:55 AM,21.2,10.4,63,30.22,10.0,WNW,4.6,-,N/A,,Clear,300,2013-02-09 12:55:00
8:15 AM,21.2,10.4,63,30.23,10.0,West,8.1,-,N/A,,Clear,280,2013-02-09 13:15:00
8:35 AM,21.2,10.4,63,30.23,10.0,WNW,5.8,-,N/A,,Clear,300,2013-02-09 13:35:00
8:55 AM,21.2,10.4,63,30.23,10.0,NW,8.1,-,N/A,,Clear,310,2013-02-09 13:55:00
9:15 AM,23.0,12.2,63,30.24,10.0,WNW,5.8,-,N/A,,Clear,290,2013-02-09 14:15:00
9:35 AM,23.0,10.4,59,30.25,10.0,WNW,4.6,-,N/A,,Clear,290,2013-02-09 14:35:00
9:55 AM,26.6,10.4,51,30.25,10.0,WNW,4.6,-,N/A,,Clear,300,2013-02-09 14:55:00
10:15 AM,24.8,8.6,50,30.25,10.0,North,4.6,-,N/A,,Clear,350,2013-02-09 15:15:00
10:35 AM,26.6,8.6,47,30.26,10.0,NNW,3.5,-,N/A,,Clear,330,2013-02-09 15:35:00
10:55 AM,28.4,8.6,43,30.26,10.0,NNW,5.8,-,N/A,,Clear,340,2013-02-09 15:55:00
11:15 AM,28.4,8.6,43,30.26,10.0,NW,3.5,-,N/A,,Clear,310,2013-02-09 16:15:00
11:35 AM,28.4,10.4,47,30.27,10.0,West,5.8,-,N/A,,Clear,270,2013-02-09 16:35:00
11:55 AM,30.2,8.6,40,30.26,10.0,NW,5.8,-,N/A,,Clear,320,2013-02-09 16:55:00
12:15 PM,30.2,8.6,40,30.26,10.0,West,8.1,-,N/A,,Clear,270,2013-02-09 17:15:00
12:35 PM,32.0,8.6,38,30.26,10.0,West,5.8,-,N/A,,Clear,270,2013-02-09 17:35:00
12:55 PM,32.0,10.4,41,30.26,10.0,NW,3.5,-,N/A,,Clear,310,2013-02-09 17:55:00
1:15 PM,32.0,10.4,41,30.25,10.0,West,5.8,-,N/A,,Clear,270,2013-02-09 18:15:00
1:35 PM,32.0,12.2,44,30.25,10.0,NW,3.5,-,N/A,,Clear,310,2013-02-09 18:35:00
1:55 PM,33.8,10.4,38,30.25,10.0,NW,4.6,-,N/A,,Clear,310,2013-02-09 18:55:00
2:15 PM,33.8,8.6,35,30.24,10.0,Calm,Calm,-,N/A,,Clear,0,2013-02-09 19:15:00
2:35 PM,33.8,12.2,41,30.24,10.0,SW,6.9,-,N/A,,Clear,220,2013-02-09 19:35:00
2:55 PM,33.8,12.2,41,30.25,10.0,West,5.8,-,N/A,,Clear,270,2013-02-09 19:55:00
3:15 PM,33.8,10.4,38,30.26,10.0,West,6.9,-,N/A,,Clear,280,2013-02-09 20:15:00
3:35 PM,35.6,10.4,35,30.27,10.0,WNW,6.9,-,N/A,,Clear,290,2013-02-09 20:35:00
3:55 PM,35.6,10.4,35,30.27,10.0,WNW,3.5,-,N/A,,Clear,290,2013-02-09 20:55:00
4:15 PM,35.6,8.6,33,30.27,10.0,WSW,6.9,-,N/A,,Clear,250,2013-02-09 21:15:00
4:35 PM,35.6,8.6,33,30.27,10.0,West,4.6,-,N/A,,Clear,280,2013-02-09 21:35:00
4:55 PM,35.6,8.6,33,30.27,10.0,West,6.9,-,N/A,,Clear,270,2013-02-09 21:55:00
5:15 PM,33.8,8.6,35,30.27,10.0,West,4.6,-,N/A,,Clear,270,2013-02-09 22:15:00
5:35 PM,33.8,8.6,35,30.27,10.0,West,3.5,-,N/A,,Clear,270,2013-02-09 22:35:00
5:55 PM,32.0,10.4,41,30.28,10.0,West,3.5,-,N/A,,Clear,280,2013-02-09 22:55:00
6:15 PM,32.0,10.4,41,30.29,10.0,WNW,3.5,-,N/A,,Clear,290,2013-02-09 23:15:00
6:35 PM,32.0,10.4,41,30.29,10.0,Calm,Calm,-,N/A,,Clear,0,2013-02-09 23:35:00
6:55 PM,32.0,10.4,41,30.29,10.0,Calm,Calm,-,N/A,,Clear,0,2013-02-09 23:55:00
7:15 PM,32.0,10.4,41,30.29,10.0,Calm,Calm,-,N/A,,Clear,0,2013-02-10 00:15:00
7:35 PM,28.4,12.2,51,30.29,10.0,Calm,Calm,-,N/A,,Clear,0,2013-02-10 00:35:00
7:55 PM,28.4,12.2,51,30.30,10.0,Calm,Calm,-,N/A,,Clear,0,2013-02-10 00:55:00
8:15 PM,26.6,12.2,55,30.31,10.0,Calm,Calm,-,N/A,,Clear,0,2013-02-10 01:15:00
8:35 PM,24.8,12.2,59,30.31,10.0,Calm,Calm,-,N/A,,Clear,0,2013-02-10 01:35:00
8:55 PM,26.6,12.2,55,30.31,10.0,Calm,Calm,-,N/A,,Clear,0,2013-02-10 01:55:00
9:15 PM,23.0,14.0,68,30.31,10.0,NNE,3.5,-,N/A,,Clear,20,2013-02-10 02:15:00
9:35 PM,23.0,14.0,68,30.31,10.0,NNE,3.5,-,N/A,,Clear,20,2013-02-10 02:35:00
9:55 PM,21.2,14.0,74,30.32,10.0,Calm,Calm,-,N/A,,Clear,0,2013-02-10 02:55:00
10:15 PM,21.2,14.0,74,30.31,10.0,Calm,Calm,-,N/A,,Clear,0,2013-02-10 03:15:00
10:35 PM,19.4,14.0,80,30.30,10.0,Calm,Calm,-,N/A,,Clear,0,2013-02-10 03:35:00
10:55 PM,21.2,14.0,74,30.30,10.0,NNE,4.6,-,N/A,,Clear,30,2013-02-10 03:55:00
11:15 PM,21.2,14.0,74,30.30,10.0,NNE,4.6,-,N/A,,Clear,30,2013-02-10 04:15:00
11:35 PM,21.2,14.0,74,30.29,10.0,NNE,3.5,-,N/A,,Clear,30,2013-02-10 04:35:00
11:55 PM,19.4,14.0,80,30.30,10.0,Calm,Calm,-,N/A,,Clear,0,2013-02-10 04:55:00